Weather in Dhanbad

India     23°43′36″N   86°25′52″E
temp.,
°C
wind,
m/s
gust,
m/s
humid.,
%
clouds,
%
prec.,
mm/h
press.,
hPa
HPBL,
m
16 april, fri
fri1623:30+30sw49214 0.0 1006215
02:30+29w51027100 0.0 1006272
05:30+28w4927100 0.0 1006182
08:30+36nw451284 0.0 1008662
11:30+40nw43849 0.0 10075082
14:30+41nnw43742 0.0 10035114
17:30+39nw33983 0.0 10021071
20:30+34sse221270 0.0 100541
17 april, sat
sat1723:30+29sse494093 0.0 1006234
02:30+27sse364015 0.0 1005139
05:30+28ssw473869 0.0 1007211
08:30+35sw45221 0.0 1008948
11:30+41wnw45923 0.0 10065166
14:30+42nw65895 0.0 10025131
17:30+39wsw571157 0.0 1003881
20:30+36nnw351464 0.0 1005184
18 april, sun
sun1823:30+28s36395 0.0 1006112
02:30+29w242683 0.0 100588
05:30+29wnw232116 0.0 100753
08:30+37wnw34135 0.0 1008816
11:30+41wnw471118 0.0 10064979
14:30+40wnw361094 0.0 10024228
17:30+39n351178 0.0 10011147
20:30+34nw121451 0.0 100485
19 april, mon
mon1923:30+29s36341 0.0 100591
02:30+29w221986 0.0 100418
05:30+28w22172 0.0 100638
08:30+36w34100 0.0 1007832
11:30+39nw3870 0.0 10054178
14:30+42nw6850 0.0 10014977
17:30+39nnw5760 0.0 10011262
20:30+34nnw3380 0.0 100344
20 april, tue
tue2023:30+31sse2290 0.0 100328
02:30+28w34131 0.0 100257
05:30+27wsw34160 0.0 100358
08:30+37w4570 0.0 1005629
11:30+42w3754 0.0 10034373
14:30+43sw26527 0.0 10005379
17:30+41nne34677 0.0 9991307
20:30+34ese361277 0.0 1003128